Weather History for Lakehurst NAS, NJ

Change the Weather History Date:

Saturday, July 13, 2013

  Actual Average Record
Temperature  
Mean Temperature 86 °F -  
Max Temperature 82 °F 82 °F 91 °F (1998)
Min Temperature 75 °F 65 °F 51 °F (2001)
Cooling Degree Days 22    
Growing Degree Days 36 (Base 50)    
Moisture  
Dew Point 73 °F    
Average Humidity 62    
Maximum Humidity 89    
Minimum Humidity 44    
Precipitation  
Precipitation 0.00 in - - ()
Sea Level Pressure  
Sea Level Pressure 30.18 in    
Wind  
Wind Speed 5 mph (SE)    
Max Wind Speed 13 mph    
Max Gust Speed 18 mph    
Averages and records for this station are not official NWS values.
T = Trace of Precipitation, MM = Missing Value Source: NWS Daily Summary

Daily Weather History Graph

Daily Weather History Graph

Search for Another Location

Airport:

Trip Planner

Search our weather history database for the weather conditions in past years. The results will help you decide how hot, cold, wet, or windy it might be!

Date:

Astronomy

Jul. 13, 2013 Rise Set
Actual Time 5:39 AM EDT 8:26 PM EDT
Civil Twilight 5:07 AM EDT 8:58 PM EDT
Nautical Twilight 4:27 AM EDT 9:38 PM EDT
Astronomical Twilight 3:41 AM EDT 10:23 PM EDT
Moon 10:53 AM EDT (7/13) 11:05 PM EDT (7/13)
Length of Visible Light 15h 50m
Length of Day
14h 46m
Waxing Crescent, 25% of the Moon is Illuminated
Jul 13
Waxing Crescent
Jul 15
First Quarter
Jul 22
Full
Jul 29
Last Quarter
Aug 6
New

Hourly Weather History & Observations

Time (EDT) Temp. Heat Index Dew Point Humidity Pressure Visibility Wind Dir Wind Speed Gust Speed Precip Events Conditions
12:00 AM 75.2 °F - 71.6 °F 89% 30.06 in - ENE 3.5 mph - N/A   Overcast
12:06 AM 75.9 °F - 71.1 °F 85% 30.05 in - NE 3.5 mph - N/A Rain Light Rain
1:00 AM 82.0 °F 86.7 °F 72.0 °F 71% 30.06 in - East 6.9 mph - N/A   Overcast
2:51 AM 82.4 °F 87.2 °F 71.6 °F 70% 30.09 in - SE 4.6 mph - N/A   Overcast
4:00 AM 80.1 °F 83.6 °F 71.1 °F 74% 30.09 in - East 4.6 mph - N/A   Mostly Cloudy
5:33 AM 80.6 °F 84.6 °F 71.6 °F 74% 30.13 in - East 5.8 mph - N/A   Overcast
6:00 AM 80.1 °F 83.8 °F 72.0 °F 76% 30.13 in - East 3.5 mph - N/A   Overcast
7:00 AM 78.1 °F - 73.0 °F 84% 30.15 in - Calm Calm - N/A   Overcast
9:00 AM 87.8 °F 95.6 °F 73.4 °F 62% 30.20 in - SE 5.8 mph - N/A   Overcast
9:06 AM 89.1 °F 98.0 °F 73.9 °F 61% 30.20 in - SSE 5.8 mph - N/A   Mostly Cloudy
9:47 AM 91.4 °F 100.1 °F 73.4 °F 55% 30.20 in - SE 8.1 mph - N/A   Mostly Cloudy
10:25 AM 91.4 °F 100.1 °F 73.4 °F 55% 30.20 in - SE 5.8 mph - N/A   Overcast
10:56 AM 93.2 °F 102.4 °F 73.4 °F 52% 30.21 in - SSE 10.4 mph - N/A   Overcast
11:00 AM 93.0 °F 101.9 °F 73.0 °F 52% 30.21 in - SSE 4.6 mph - N/A   Overcast
11:24 AM 89.6 °F 99.8 °F 75.2 °F 62% 30.21 in - Calm Calm - N/A   Overcast
12:00 PM 95.0 °F 105.2 °F 73.9 °F 50% 30.20 in - SE 9.2 mph 16.1 mph N/A   Mostly Cloudy
12:21 PM 96.8 °F 107.3 °F 73.4 °F 47% 30.21 in - South 11.5 mph - N/A   Scattered Clouds
1:00 PM 98.1 °F 111.2 °F 75.0 °F 48% 30.21 in - SSE 6.9 mph - N/A   Partly Cloudy
2:00 PM 98.1 °F 108.0 °F 73.0 °F 44% 30.19 in - South 10.4 mph 18.4 mph N/A   Mostly Cloudy
3:00 PM 97.0 °F 107.7 °F 73.9 °F 47% 30.19 in - SSE 9.2 mph - N/A   Scattered Clouds
4:00 PM 97.0 °F 109.3 °F 75.0 °F 49% 30.19 in - SSE 12.7 mph - N/A   Scattered Clouds
5:00 PM 96.1 °F 105.6 °F 73.0 °F 47% 30.19 in - South 11.5 mph - N/A   Scattered Clouds
5:44 PM 93.2 °F 102.4 °F 73.4 °F 52% 30.21 in - South 6.9 mph - N/A Thunderstorm Thunderstorm
6:00 PM 91.0 °F 100.4 °F 73.9 °F 57% 30.21 in - South 4.6 mph - N/A Thunderstorm Thunderstorm
6:22 PM 91.4 °F 102.5 °F 75.2 °F 59% 30.22 in - South 6.9 mph - N/A   Partly Cloudy
7:00 PM 89.1 °F 98.0 °F 73.9 °F 61% 30.23 in - SE 3.5 mph - N/A   Clear
8:00 PM 89.1 °F 99.1 °F 75.0 °F 63% 30.24 in - Calm Calm - N/A   Clear
9:00 PM 86.0 °F 93.8 °F 73.9 °F 67% 30.25 in - Calm Calm - N/A   Mostly Cloudy
10:00 PM 82.9 °F 89.4 °F 73.9 °F 74% 30.27 in - SSE 3.5 mph - N/A   Clear
11:00 PM 79.0 °F - 73.0 °F 82% 30.28 in - Calm Calm - N/A   Clear